Henderson, KY

1:44 AM CDT on April 22, 2018 (GMT -0500)
Henderson City-County

Weather History for KEHR - April, 2014

Change the Weather History Date:

Friday, April 4, 2014

  Actual Average Record
Temperature  
Mean Temperature 52 °F -  
Max Temperature 59 °F 64 °F 89 °F (1934)
Min Temperature 44 °F 42 °F 27 °F (1975)
Degree Days  
Heating Degree Days 13    
Growing Degree Days 2 (Base 50)    
Moisture  
Dew Point 43 °F    
Average Humidity 73    
Maximum Humidity 94    
Minimum Humidity 57    
Precipitation  
Precipitation 1.20 in - - ()
Sea Level Pressure  
Sea Level Pressure 29.85 in    
Wind  
Wind Speed 12 mph (West)    
Max Wind Speed 25 mph    
Max Gust Speed 33 mph    
Visibility 10 miles    
Events Thunderstorm    
Averages and records for this station are not official NWS values.
T = Trace of Precipitation, MM = Missing Value Source: NWS Daily Summary

Daily Weather History Graph

Daily Weather History Graph

Search for Another Location

Airport or City:

Astronomy

Apr. 04, 2014 Rise Set
Actual Time 6:31 AM CDT 7:16 PM CDT
Civil Twilight 6:04 AM CDT 7:43 PM CDT
Nautical Twilight 5:33 AM CDT 8:14 PM CDT
Astronomical Twilight 5:01 AM CDT 8:46 PM CDT
Moon 9:51 AM CDT (4/4) No Moon Set
Length of Visible Light 13h 38m
Length of Day
12h 44m
Waxing Crescent, 25% of the Moon is Illuminated
Apr 4
Waxing Crescent
Apr 7
First Quarter
Apr 15
Full
Apr 22
Last Quarter
Apr 29
New

Hourly Weather History & Observations

Time (CDT) Temp. Windchill Dew Point Humidity Pressure Visibility Wind Dir Wind Speed Gust Speed Precip Events Conditions
12:15 AM 60.8 °F - 57.2 °F 88% 29.69 in 10.0 mi ESE 9.2 mph - 0.10 in Thunderstorm Thunderstorm
12:35 AM 60.8 °F - 57.2 °F 88% 29.63 in 9.0 mi SSE 5.8 mph - 0.11 in Thunderstorm Thunderstorm
12:55 AM 59.0 °F - 53.6 °F 82% 29.72 in 4.0 mi West 6.9 mph 23.0 mph 0.59 in Thunderstorm Thunderstorm
1:15 AM 59.0 °F - 55.4 °F 88% 29.73 in 10.0 mi WNW 15.0 mph - 0.04 in Thunderstorm Mostly Cloudy
1:35 AM 59.0 °F - 55.4 °F 88% 29.73 in 10.0 mi NNW 9.2 mph 20.7 mph 0.06 in   Mostly Cloudy
1:55 AM 59.0 °F - 55.4 °F 88% 29.72 in 10.0 mi NNW 9.2 mph - 0.10 in Thunderstorm Mostly Cloudy
2:15 AM 59.0 °F - 53.6 °F 82% 29.70 in 10.0 mi NE 6.9 mph - 0.04 in   Mostly Cloudy
2:35 AM 57.2 °F - 53.6 °F 88% 29.69 in 10.0 mi NNE 8.1 mph - 0.08 in   Mostly Cloudy
2:55 AM 57.2 °F - 53.6 °F 88% 29.70 in 10.0 mi East 5.8 mph - 0.12 in   Overcast
3:15 AM 57.2 °F - 53.6 °F 88% 29.69 in 8.0 mi Calm Calm - 0.07 in   Overcast
3:35 AM 57.2 °F - 53.6 °F 88% 29.69 in 8.0 mi East 9.2 mph - 0.14 in   Overcast
3:55 AM 57.2 °F - 53.6 °F 88% 29.69 in 6.0 mi SE 3.5 mph - 0.19 in   Overcast
4:15 AM 57.2 °F - 55.4 °F 94% 29.68 in 10.0 mi South 9.2 mph - 0.03 in   Mostly Cloudy
4:35 AM 57.2 °F - 53.6 °F 88% 29.69 in 10.0 mi South 10.4 mph - 0.08 in Thunderstorm Mostly Cloudy
4:55 AM 57.2 °F - 53.6 °F 88% 29.69 in 10.0 mi South 9.2 mph - 0.14 in   Overcast
5:15 AM 57.2 °F - 53.6 °F 88% 29.68 in 10.0 mi South 11.5 mph - 0.01 in   Overcast
5:35 AM 57.2 °F - 53.6 °F 88% 29.67 in 10.0 mi SSE 15.0 mph - 0.03 in   Overcast
5:55 AM 57.2 °F - 53.6 °F 88% 29.58 in 10.0 mi SE 11.5 mph 21.9 mph 0.06 in   Overcast
6:15 AM 57.2 °F - 53.6 °F 88% 29.59 in 10.0 mi SSE 11.5 mph 17.3 mph N/A   Scattered Clouds
6:35 AM 57.2 °F - 53.6 °F 88% 29.60 in 10.0 mi SSE 12.7 mph - N/A   Clear
6:55 AM 57.2 °F - 53.6 °F 88% 29.62 in 10.0 mi South 8.1 mph - N/A   Clear
7:15 AM 57.2 °F - 53.6 °F 88% 29.63 in 10.0 mi SSW 10.4 mph - N/A   Mostly Cloudy
7:35 AM 57.2 °F - 53.6 °F 88% 29.65 in 10.0 mi WSW 10.4 mph - N/A   Overcast
7:55 AM 57.2 °F - 53.6 °F 88% 29.66 in 10.0 mi SW 13.8 mph 19.6 mph N/A   Overcast
8:15 AM 57.2 °F - 53.6 °F 88% 29.66 in 10.0 mi WSW 13.8 mph - N/A   Mostly Cloudy
8:35 AM 57.2 °F - 53.6 °F 88% 29.68 in 10.0 mi WSW 11.5 mph - N/A   Overcast
8:55 AM 57.2 °F - 53.6 °F 88% 29.71 in 10.0 mi WNW 24.2 mph 28.8 mph N/A   Overcast
9:15 AM 53.6 °F - 46.4 °F 77% 29.73 in 10.0 mi WNW 19.6 mph 25.3 mph N/A   Mostly Cloudy
9:35 AM 53.6 °F - 46.4 °F 77% 29.74 in 10.0 mi West 21.9 mph 27.6 mph N/A   Overcast
9:55 AM 53.6 °F - 46.4 °F 77% 29.75 in 10.0 mi West 23.0 mph 31.1 mph N/A   Overcast
10:15 AM 51.8 °F - 42.8 °F 71% 29.77 in 10.0 mi WNW 21.9 mph 32.2 mph N/A   Overcast
10:35 AM 50.0 °F - 42.8 °F 76% 29.78 in 10.0 mi WNW 20.7 mph 28.8 mph N/A   Overcast
10:55 AM 48.2 °F - 41.0 °F 76% 29.81 in 10.0 mi West 25.3 mph 33.4 mph N/A   Overcast
11:15 AM 50.0 °F - 41.0 °F 71% 29.82 in 10.0 mi WNW 17.3 mph 23.0 mph N/A   Overcast
11:35 AM 50.0 °F - 39.2 °F 66% 29.84 in 10.0 mi WNW 17.3 mph 28.8 mph N/A   Overcast
11:55 AM 48.2 °F - 39.2 °F 71% 29.85 in 10.0 mi West 25.3 mph 31.1 mph N/A   Overcast
12:15 PM 48.2 °F - 37.4 °F 66% 29.87 in 10.0 mi West 23.0 mph 31.1 mph N/A   Overcast
12:35 PM 48.2 °F - 37.4 °F 66% 29.88 in 10.0 mi WNW 23.0 mph 31.1 mph N/A   Overcast
12:55 PM 46.4 °F 38.7 °F 35.6 °F 66% 29.89 in 10.0 mi West 20.7 mph 31.1 mph N/A   Overcast
1:15 PM 46.4 °F 39.5 °F 37.4 °F 71% 29.90 in 10.0 mi West 17.3 mph 31.1 mph N/A   Overcast
1:55 PM 48.2 °F - 35.6 °F 62% 29.91 in 10.0 mi WNW 13.8 mph 27.6 mph N/A   Overcast
2:15 PM 48.2 °F - 37.4 °F 66% 29.91 in 10.0 mi West 17.3 mph - N/A   Overcast
2:35 PM 48.2 °F - 37.4 °F 66% 29.92 in 10.0 mi West 23.0 mph - N/A   Overcast
2:55 PM 50.0 °F - 35.6 °F 58% 29.92 in 10.0 mi WNW 19.6 mph 29.9 mph N/A   Overcast
3:15 PM 48.2 °F - 35.6 °F 62% 29.93 in 10.0 mi WNW 17.3 mph 26.5 mph N/A   Overcast
3:35 PM 48.2 °F - 37.4 °F 66% 29.94 in 10.0 mi West 15.0 mph 21.9 mph N/A   Overcast
3:55 PM 48.2 °F - 35.6 °F 62% 29.95 in 10.0 mi WNW 16.1 mph 26.5 mph N/A   Overcast
4:15 PM 48.2 °F - 37.4 °F 66% 29.96 in 10.0 mi WNW 18.4 mph 25.3 mph N/A   Overcast
4:35 PM 48.2 °F - 35.6 °F 62% 29.96 in 10.0 mi WNW 20.7 mph 25.3 mph N/A   Overcast
4:55 PM 48.2 °F - 35.6 °F 62% 29.97 in 10.0 mi West 16.1 mph 24.2 mph N/A   Overcast
5:15 PM 48.2 °F - 33.8 °F 58% 29.97 in 10.0 mi NW 19.6 mph 25.3 mph N/A   Overcast
5:35 PM 48.2 °F - 35.6 °F 62% 29.98 in 10.0 mi WNW 20.7 mph 25.3 mph N/A   Overcast
5:55 PM 48.2 °F - 33.8 °F 58% 29.99 in 10.0 mi WNW 17.3 mph - N/A   Overcast
6:15 PM 46.4 °F 39.2 °F 33.8 °F 62% 30.00 in 10.0 mi West 18.4 mph - N/A   Overcast
6:35 PM 46.4 °F 40.1 °F 33.8 °F 62% 30.01 in 10.0 mi WNW 15.0 mph - N/A   Overcast
6:55 PM 46.4 °F 39.8 °F 33.8 °F 62% 30.02 in 10.0 mi WNW 16.1 mph 20.7 mph N/A   Overcast
7:15 PM 46.4 °F 39.8 °F 33.8 °F 62% 30.02 in 10.0 mi WNW 16.1 mph 20.7 mph N/A   Overcast
7:35 PM 46.4 °F 40.4 °F 33.8 °F 62% 30.03 in 10.0 mi WNW 13.8 mph - N/A   Overcast
7:55 PM 46.4 °F 41.9 °F 33.8 °F 62% 30.04 in 10.0 mi WNW 9.2 mph - N/A   Overcast
8:15 PM 46.4 °F 41.1 °F 33.8 °F 62% 30.05 in 10.0 mi WNW 11.5 mph - N/A   Overcast
8:35 PM 46.4 °F 40.1 °F 33.8 °F 62% 30.06 in 10.0 mi WNW 15.0 mph 21.9 mph N/A   Overcast
8:55 PM 46.4 °F 40.7 °F 32.0 °F 57% 30.07 in 10.0 mi NW 12.7 mph - N/A   Overcast
9:15 PM 46.4 °F 40.4 °F 32.0 °F 57% 30.08 in 10.0 mi NW 13.8 mph 20.7 mph N/A   Overcast
9:35 PM 44.6 °F 39.2 °F 30.2 °F 57% 30.09 in 10.0 mi NW 10.4 mph - N/A   Overcast
9:55 PM 44.6 °F 38.4 °F 30.2 °F 57% 30.09 in 10.0 mi NW 12.7 mph - N/A   Overcast
10:15 PM 44.6 °F 38.4 °F 32.0 °F 61% 30.10 in 10.0 mi NW 12.7 mph 16.1 mph N/A   Overcast
10:35 PM 44.6 °F 38.1 °F 30.2 °F 57% 30.10 in 10.0 mi NW 13.8 mph 24.2 mph N/A   Overcast
10:55 PM 44.6 °F 38.1 °F 30.2 °F 57% 30.10 in 10.0 mi NW 13.8 mph 20.7 mph N/A   Overcast
11:15 PM 44.6 °F 38.4 °F 32.0 °F 61% 30.11 in 10.0 mi NW 12.7 mph 23.0 mph N/A   Overcast
11:35 PM 44.6 °F 39.2 °F 30.2 °F 57% 30.11 in 10.0 mi NW 10.4 mph - N/A   Overcast
11:55 PM 44.6 °F 39.2 °F 30.2 °F 57% 30.11 in 10.0 mi NNW 10.4 mph - N/A   Overcast